Location: Makanda
(37.6176°N, 89.2090°W)
Time: 05:03:09
(UTC+00:00)

Spot 2 - Pass Details

Date: 23 September 2019
Orbit: 569 x 775 km, 98.7° (Epoch: 14 October)

Event Time Altitude Azimuth Distance (km) Brightness Sun altitude
Rises 09:48:32 0° 8° (N) 2,993 7.9 -23.5°
Reaches altitude 10° 09:50:50 10° 4° (N) 2,044 7.0 -23.1°
Enters shadow 09:54:39 51° 314° (NW) 786 4.3 -22.4°
